EW5238 Weather Reports


time (UTC)temp
C
wind
direction
speed
KPH
gust
KPH
rain 1hr
cm
rain 24hr
cm
rain mn
cm
humidity
%
barometer
mb
20260506184636 22 190 1.6 6.4 0.00 0.00 0.00 15 1008.1
20260506184131 22 190 3.2 8.0 0.00 0.00 0.00 21 1008.0
20260506183903 22 190 3.2 9.7 0.00 0.00 0.00 15 1008.2
20260506183133 22 190 4.8 9.7 0.00 0.00 0.00 31 1008.3
20260506182633 22 190 6.4 11.3 0.00 0.00 0.00 35 1008.4
20260506182405 22 190 8.0 17.7 0.00 0.00 0.00 32 1008.3
20260506181634 22 190 9.7 17.7 0.00 0.00 0.00 32 1008.3
20260506181128 22 190 8.0 20.9 0.00 0.00 0.00 35 1008.3
20260506180632 22 190 9.7 20.9 0.00 0.00 0.00 27 1008.3
20260506180121 23 190 9.7 19.3 0.00 0.00 0.00 41 1008.4
20260506175851 23 190 8.0 16.1 0.00 0.00 0.00 46 1008.4
20260506175114 24 190 6.4 16.1 0.00 0.00 0.00 54 1008.5
20260506174855 26 190 1.6 12.9 0.00 0.00 0.00 57 1008.6
20260506174114 27 190 0.0 0.0 0.00 0.00 0.00 27 1008.6
20260506173620 27 190 0.0 0.0 0.00 0.00 0.00 22 1008.7
20260506173115 27 190 0.0 0.0 0.00 0.00 0.00 24 1008.8
20260506172610 27 190 0.0 0.0 0.00 0.00 0.00 21 1008.8
20260506172110 27 190 0.0 0.0 0.00 0.00 0.00 20 1008.9
20260506171616 26 190 0.0 0.0 0.00 0.00 0.00 10 1008.9
20260506171110 26 190 0.0 0.0 0.00 0.00 0.00 7 1009.0
20260506170611 26 190 0.0 0.0 0.00 0.00 0.00 8 1009.1
20260506170111 26 190 0.0 0.0 0.00 0.00 0.00 9 1009.3
20260506165611 26 190 0.0 0.0 0.00 0.00 0.00 1 1009.2
20260506165111 26 190 0.0 0.0 0.00 0.00 0.00 1 1009.2
20260506164611 26 190 0.0 0.0 0.00 0.00 0.00 1 1009.3
20260506164117 26 190 0.0 0.0 0.00 0.00 0.00 1 1009.3
20260506163612 26 190 0.0 0.0 0.00 0.00 0.00 1 1009.3
20260506163106 26 190 0.0 0.0 0.00 0.00 0.00 1 1009.4
20260506162838 26 190 0.0 0.0 0.00 0.00 0.00 1 1009.3
20260506162105 26 190 0.0 0.0 0.00 0.00 0.00 1 1009.4
20260506161102 26 190 0.0 0.0 0.00 0.00 0.00 1 1009.0
20260506160603 26 190 0.0 0.0 0.00 0.00 0.00 1 1008.9
20260506160329 26 190 0.0 0.0 0.00 0.00 0.00 1 1009.0
20260506155604 26 190 0.0 0.0 0.00 0.00 0.00 1 1008.7
20260506155057 25 190 0.0 0.0 0.00 0.00 0.00 1 1008.6
20260506154827 25 190 0.0 0.0 0.00 0.00 0.00 1 1008.6
20260506154325 26 190 0.0 0.0 0.00 0.00 0.00 1 1008.5
20260506153552 25 190 0.0 0.0 0.00 0.00 0.00 1 1008.4
20260506153047 25 190 0.0 0.0 0.00 0.00 0.00 1 1008.1
20260506152546 25 190 0.0 3.2 0.00 0.00 0.00 1 1008.1
20260506152316 25 190 0.0 3.2 0.00 0.00 0.00 1 1008.1
20260506151543 25 190 0.0 3.2 0.00 0.00 0.00 1 1008.2
20260506151318 25 190 0.0 3.2 0.00 0.00 0.00 1 1008.2
20260506150545 25 190 0.0 3.2 0.00 0.00 0.00 1 1008.2
20260506145535 25 190 0.0 0.0 0.00 0.00 0.00 1 1008.6
20260506145307 25 190 0.0 0.0 0.00 0.00 0.00 1 1008.4
20260506144531 25 190 0.0 0.0 0.00 0.00 0.00 1 1008.4
20260506144028 25 190 1.6 4.8 0.00 0.00 0.00 1 1008.3
20260506143528 25 190 1.6 6.4 0.00 0.00 0.00 1 1008.0
20260506143027 25 190 3.2 6.4 0.00 0.00 0.00 1 1007.8
20260506142755 25 190 3.2 8.0 0.00 0.00 0.00 1 1007.9
20260506142256 25 190 3.2 8.0 0.00 0.00 0.00 1 1007.8
20260506141523 25 190 3.2 6.4 0.00 0.00 0.00 1 1007.6
20260506141021 25 190 3.2 8.0 0.00 0.00 0.00 1 1007.4
20260506140520 25 190 3.2 8.0 0.00 0.00 0.00 1 1007.4
20260506140016 25 190 1.6 4.8 0.00 0.00 0.00 1 1007.4
20260506135517 25 190 1.6 8.0 0.00 0.00 0.00 1 1007.4
20260506135014 25 190 3.2 8.0 0.00 0.00 0.00 1 1007.3
20260506134515 25 190 3.2 8.0 0.00 0.00 0.00 1 1007.4
20260506134012 25 190 3.2 8.0 0.00 0.00 0.00 1 1007.4
20260506133743 25 190 1.6 9.7 0.00 0.00 0.00 1 1007.4
20260506133237 25 190 1.6 9.7 0.00 0.00 0.00 1 1007.4
20260506132503 25 190 0.0 4.8 0.00 0.00 0.00 1 1007.5
20260506131503 25 190 1.6 3.2 0.00 0.00 0.00 1 1007.6
20260506131232 25 190 1.6 3.2 0.00 0.00 0.00 1 1007.6
20260506130500 -17 0.0 0.0 0.00 0.00 0.00 1007.6
20260506130220 -17 0.0 0.0 0.00 0.00 0.00 1007.5
20260506125625 -17 0.0 0.0 0.00 0.00 0.00 1007.5
20260506124858 -17 0.0 0.0 0.00 0.00 0.00 1007.4
20260506124258 -17 0.0 0.0 0.00 0.00 0.00 1007.4
20260506123748 -17 0.0 0.0 0.00 0.00 0.00 1007.4
20260506123157 -17 0.0 0.0 0.00 0.00 0.00 1007.4
20260506122652 -17 0.0 0.0 0.00 0.00 0.00 1007.3
20260506122059 -17 0.0 0.0 0.00 0.00 0.00 1007.3
20260506121830 -17 0.0 0.0 0.00 0.00 0.00 1007.3
20260506121043 -17 0.0 0.0 0.00 0.00 0.00 1007.3
20260506120722 -17 0.0 0.0 0.00 0.00 0.00 1007.3
20260506115852 -17 0.0 0.0 0.00 0.00 0.00 1007.2
20260506115307 -17 0.0 0.0 0.00 0.00 0.00 1007.1
20260506114759 -17 0.0 0.0 0.00 0.00 0.00 1007.2
20260506114157 24 0.0 0.0 0.00 0.00 0.00 1 1007.0
20260506113652 24 190 1.6 0.0 0.00 0.00 0.00 1 1007.0
20260506113058 24 190 1.6 4.8 0.00 0.00 0.00 1 1006.8
20260506112558 24 190 1.6 6.4 0.00 0.00 0.00 1 1006.8
20260506112051 24 190 1.6 9.7 0.00 0.00 0.00 1 1006.8
20260506111548 25 190 1.6 9.7 0.00 0.00 0.00 1 1006.7
20260506111321 25 190 0.0 0.0 0.00 0.00 0.00 1 1006.8
20260506110543 25 190 0.0 0.0 0.00 0.00 0.00 1 1006.8
20260506110311 25 190 0.0 0.0 0.00 0.00 0.00 1 1006.9
20260506105541 25 190 0.0 0.0 0.00 0.00 0.00 1 1006.8
20260506105036 25 190 0.0 0.0 0.00 0.00 0.00 1 1006.7
20260506104536 25 190 0.0 0.0 0.00 0.00 0.00 1 1006.7
20260506104304 25 190 0.0 0.0 0.00 0.00 0.00 1 1006.6
20260506103533 25 190 1.6 6.4 0.00 0.00 0.00 1 1006.5
20260506103030 25 190 1.6 6.4 0.00 0.00 0.00 1 1006.5
20260506102527 25 190 1.6 6.4 0.00 0.00 0.00 1 1006.3
20260506101804 25 190 3.2 9.7 0.00 0.00 0.00 1 1006.1
20260506101020 25 190 4.8 12.9 0.00 0.00 0.00 1 1006.1
20260506100751 25 190 4.8 12.9 0.00 0.00 0.00 1 1005.9
20260506100025 25 190 4.8 12.9 0.00 0.00 0.00 1 1005.9
20260506095519 25 190 4.8 12.9 0.00 0.00 0.00 1 1005.9
20260506095018 25 190 4.8 11.3 0.00 0.00 0.00 1 1005.9
20260506094747 24 190 4.8 11.3 0.00 0.00 0.00 1 1005.9
20260506094017 24 190 4.8 11.3 0.00 0.00 0.00 1 1005.8
20260506093517 24 190 4.8 9.7 0.00 0.00 0.00 1 1005.8
20260506093017 24 190 4.8 11.3 0.00 0.00 0.00 1 1005.7
20260506092748 24 190 6.4 12.9 0.00 0.00 0.00 1 1005.8
20260506092015 24 190 6.4 12.9 0.00 0.00 0.00 1 1005.8
20260506091513 24 190 6.4 12.9 0.00 0.00 0.00 1 1005.7
20260506091011 24 190 6.4 16.1 0.00 0.00 0.00 1 1005.7
20260506090509 24 190 6.4 16.1 0.00 0.00 0.00 1 1005.7
20260506090239 24 190 6.4 17.7 0.00 0.00 0.00 1 1005.7
20260506085510 24 190 6.4 17.7 0.00 0.00 0.00 1 1005.7
20260506085010 24 190 6.4 12.9 0.00 0.00 0.00 1 1005.7
20260506084506 25 190 4.8 11.3 0.00 0.00 0.00 1 1005.9
20260506084008 25 190 6.4 14.5 0.00 0.00 0.00 1 1005.9
20260506083507 25 190 6.4 14.5 0.00 0.00 0.00 1 1005.8
20260506083009 25 190 6.4 17.7 0.00 0.00 0.00 1 1005.8
20260506082505 25 190 6.4 17.7 0.00 0.00 0.00 1 1005.7
20260506082239 25 190 6.4 14.5 0.00 0.00 0.00 1 1005.7
20260506081506 25 190 6.4 14.5 0.00 0.00 0.00 1 1005.8
20260506081005 25 190 6.4 14.5 0.00 0.00 0.00 1 1005.7
20260506080505 25 190 8.0 16.1 0.00 0.00 0.00 1 1005.6
20260506073234 25 190 6.4 14.5 0.00 0.00 0.00 1 1006.2
20260506072456 25 190 6.4 14.5 0.00 0.00 0.00 1 1006.5
20260506071958 25 190 8.0 19.3 0.00 0.00 0.00 1 1006.4
20260506071457 25 190 6.4 19.3 0.00 0.00 0.00 1 1006.4
20260506070956 25 190 6.4 11.3 0.00 0.00 0.00 1 1006.5
20260506070457 25 190 6.4 12.9 0.00 0.00 0.00 1 1006.6
20260506062444 24 190 8.0 17.7 0.00 0.00 0.00 1 1006.7
20260506061439 24 190 8.0 14.5 0.00 0.00 0.00 1 1006.7
20260506060940 24 190 8.0 14.5 0.00 0.00 0.00 1 1006.7
20260506060440 24 190 6.4 14.5 0.00 0.00 0.00 1 1006.7
20260506050933 24 190 6.4 12.9 0.00 0.00 0.00 1 1006.8
20260506050428 24 190 4.8 11.3 0.00 0.00 0.00 1 1006.8
20260506044922 24 190 6.4 11.3 0.00 0.00 0.00 1 1006.8
20260506044419 25 190 6.4 11.3 0.00 0.00 0.00 1 1006.8
20260506043918 25 190 6.4 11.3 0.00 0.00 0.00 1 1006.9
20260506043420 25 190 6.4 14.5 0.00 0.00 0.00 1 1006.8
20260506042918 25 190 6.4 14.5 0.00 0.00 0.00 1 1006.8
20260506042418 24 190 6.4 14.5 0.00 0.00 0.00 1 1006.8
20260506041918 25 190 8.0 14.5 0.00 0.00 0.00 1 1006.6
20260506041420 25 190 9.7 20.9 0.00 0.00 0.00 1 1006.5
20260506040918 25 190 9.7 20.9 0.00 0.00 0.00 1 1006.4
20260506040418 25 190 9.7 17.7 0.00 0.00 0.00 1 1006.4
20260506040151 25 190 11.3 17.7 0.00 0.00 0.00 1 1006.3
20260506035413 25 190 11.3 19.3 0.00 0.00 0.00 1 1006.3
20260506034913 25 190 9.7 19.3 0.00 0.00 0.00 1 1006.1
20260506034413 25 190 8.0 19.3 0.00 0.00 0.00 1 1006.1
20260506033909 25 190 8.0 19.3 0.00 0.00 0.00 1 1006.1
20260506033641 25 190 8.0 17.7 0.00 0.00 0.00 1 1006.1
20260506033412 25 190 8.0 17.7 0.00 0.00 0.00 1 1006.1
20260506033139 25 190 6.4 17.7 0.00 0.00 0.00 1 1006.1
20260506032413 25 190 6.4 12.9 0.00 0.00 0.00 1 1006.2
20260506031909 25 190 8.0 14.5 0.00 0.00 0.00 1 1006.1
20260506031404 25 190 6.4 14.5 0.00 0.00 0.00 1 1006.1
20260506030904 25 190 6.4 12.9 0.00 0.00 0.00 1 1005.9
20260506030404 25 190 8.0 16.1 0.00 0.00 0.00 1 1005.9
20260506025903 25 190 8.0 16.1 0.00 0.00 0.00 1 1006.0
20260506025404 25 190 9.7 17.7 0.00 0.00 0.00 1 1006.0
20260506024917 25 190 9.7 17.7 0.00 0.00 0.00 1 1006.0
20260506024404 25 190 9.7 20.9 0.00 0.00 0.00 1 1005.9
20260506023904 25 190 9.7 20.9 0.00 0.00 0.00 1 1005.9
20260506023402 25 190 8.0 16.1 0.00 0.00 0.00 1 1005.7
20260506022901 25 190 8.0 16.1 0.00 0.00 0.00 1 1005.6
20260506022400 25 190 8.0 16.1 0.00 0.00 0.00 1 1005.5
20260506022134 25 190 8.0 14.5 0.00 0.00 0.00 2 1005.5
20260506021404 25 190 8.0 14.5 0.00 0.00 0.00 3 1005.4
20260506020856 25 190 6.4 12.9 0.00 0.00 0.00 4 1005.5
20260506020635 25 190 8.0 14.5 0.00 0.00 0.00 6 1005.4
20260506015858 25 190 6.4 14.5 0.00 0.00 0.00 7 1005.3
20260506015404 25 190 6.4 17.7 0.00 0.00 0.00 10 1005.2
20260506014901 25 190 8.0 17.7 0.00 0.00 0.00 12 1005.1
20260506014627 25 190 8.0 16.1 0.00 0.00 0.00 13 1005.0
20260506013857 25 190 8.0 16.1 0.00 0.00 0.00 15 1004.9
20260506013402 25 190 6.4 12.9 0.00 0.00 0.00 17 1004.8
20260506012905 25 190 8.0 20.9 0.00 0.00 0.00 19 1004.8
20260506012633 25 190 8.0 20.9 0.00 0.00 0.00 22 1004.7
20260506012124 25 190 8.0 17.7 0.00 0.00 0.00 25 1004.6
20260506011401 26 190 8.0 14.5 0.00 0.00 0.00 27 1004.5
20260506010900 26 190 8.0 17.7 0.00 0.00 0.00 29 1004.5
20260506010625 26 190 9.7 17.7 0.00 0.00 0.00 31 1004.4
20260506005901 26 190 9.7 19.3 0.00 0.00 0.00 33 1004.4
20260506005347 26 190 9.7 19.3 0.00 0.00 0.00 34 1004.3
20260506004847 26 190 8.0 19.3 0.00 0.00 0.00 35 1004.3
20260506004349 26 190 8.0 19.3 0.00 0.00 0.00 37 1004.3
20260506003852 26 190 8.0 16.1 0.00 0.00 0.00 39 1004.2
20260506003348 26 190 8.0 16.1 0.00 0.00 0.00 42 1004.1
20260506002848 26 190 9.7 16.1 0.00 0.00 0.00 43 1004.2
20260506001843 26 190 9.7 16.1 0.00 0.00 0.00 46 1004.1
20260506001342 26 190 8.0 16.1 0.00 0.00 0.00 47 1004.2
20260506000842 27 190 8.0 16.1 0.00 0.00 0.00 48 1004.3
20260506000342 27 190 9.7 19.3 0.00 0.00 0.00 50 1004.3
20260505235844 27 190 11.3 19.3 0.00 0.00 0.00 52 1004.3
20260505235353 27 190 9.7 19.3 0.00 0.00 0.00 53 1004.1
20260505235110 27 190 9.7 17.7 0.00 0.00 0.00 52 1004.1
20260505234340 27 190 11.3 22.5 0.00 0.00 0.00 50 1004.1
20260505233838 27 190 9.7 22.5 0.00 0.00 0.00 52 1004.1
20260505233338 27 190 9.7 19.3 0.00 0.00 0.00 53 1004.0
20260505232841 27 190 11.3 19.3 0.00 0.00 0.00 54 1003.9
20260505232337 27 190 11.3 24.1 0.00 0.00 0.00 55 1004.1
20260505231830 27 190 12.9 24.1 0.00 0.00 0.00 55 1004.1
20260505231332 27 190 11.3 22.5 0.00 0.00 0.00 57 1004.0
20260505230832 27 190 9.7 19.3 0.00 0.00 0.00 54 1003.9
20260505230333 27 190 11.3 19.3 0.00 0.00 0.00 55 1003.8
20260505225832 27 190 9.7 17.7 0.00 0.00 0.00 56 1003.7
20260505225332 27 190 11.3 20.9 0.00 0.00 0.00 57 1003.9
20260505224829 27 190 11.3 22.5 0.00 0.00 0.00 58 1003.9
20260505224331 27 190 11.3 22.5 0.00 0.00 0.00 59 1003.9
20260505223828 28 190 11.3 20.9 0.00 0.00 0.00 59 1003.8
20260505223604 28 190 11.3 20.9 0.00 0.00 0.00 58 1003.9
20260505222829 28 190 12.9 22.5 0.00 0.00 0.00 59 1004.1
20260505222331 28 190 12.9 22.5 0.00 0.00 0.00 61 1004.0
20260505222113 28 190 12.9 25.7 0.00 0.00 0.00 61 1003.9
20260505221331 28 190 14.5 25.7 0.00 0.00 0.00 62 1003.9
20260505220324 28 190 12.9 24.1 0.00 0.00 0.00 62 1003.8
20260505215825 29 190 12.9 25.7 0.00 0.00 0.00 62 1004.0
20260505215556 29 190 12.9 25.7 0.00 0.00 0.00 62 1004.1
20260505214828 29 190 12.9 25.7 0.00 0.00 0.00 61 1004.0
20260505214326 29 190 12.9 25.7 0.00 0.00 0.00 61 1004.0
20260505213821 28 190 11.3 24.1 0.00 0.00 0.00 61 1004.0
20260505213322 28 190 11.3 24.1 0.00 0.00 0.00 61 1004.1
20260505212821 29 190 11.3 24.1 0.00 0.00 0.00 62 1004.2
20260505212554 29 190 11.3 24.1 0.00 0.00 0.00 62 1004.3
20260505211319 29 190 11.3 25.7 0.00 0.00 0.00 62 1004.4
20260505210815 29 190 11.3 22.5 0.00 0.00 0.00 62 1004.5
20260505210317 29 190 11.3 22.5 0.00 0.00 0.00 62 1004.6
20260505210044 29 190 9.7 20.9 0.00 0.00 0.00 62 1004.7
20260505205541 29 190 11.3 24.1 0.00 0.00 0.00 62 1004.7
20260505204811 28 190 12.9 29.0 0.00 0.00 0.00 62 1004.8
20260505204312 28 190 12.9 25.7 0.00 0.00 0.00 62 1004.8
20260505203804 28 190 12.9 25.7 0.00 0.00 0.00 62 1004.9
20260505203304 29 190 12.9 19.3 0.00 0.00 0.00 62 1005.0
20260505202803 28 190 11.3 20.9 0.00 0.00 0.00 61 1005.0
20260505202306 28 190 11.3 20.9 0.00 0.00 0.00 61 1005.1
20260505201801 28 190 11.3 20.9 0.00 0.00 0.00 62 1005.3
20260505201259 29 190 11.3 20.9 0.00 0.00 0.00 61 1005.3
20260505200756 29 190 11.3 24.1 0.00 0.00 0.00 61 1005.3
20260505195756 29 190 12.9 20.9 0.00 0.00 0.00 61 1005.3
20260505195256 29 190 12.9 25.7 0.00 0.00 0.00 61 1005.3
20260505194758 29 190 12.9 25.7 0.00 0.00 0.00 61 1005.3
20260505194530 29 190 12.9 20.9 0.00 0.00 0.00 60 1005.5
20260505194028 28 190 11.3 20.9 0.00 0.00 0.00 59 1005.5
20260505193256 28 190 9.7 20.9 0.00 0.00 0.00 58 1005.6
20260505192756 28 190 9.7 20.9 0.00 0.00 0.00 57 1005.8
20260505192300 28 190 11.3 22.5 0.00 0.00 0.00 54 1005.9
20260505191257 28 190 11.3 22.5 0.00 0.00 0.00 57 1005.9
20260505190756 28 190 11.3 20.9 0.00 0.00 0.00 59 1006.0
20260505190257 28 190 11.3 19.3 0.00 0.00 0.00 55 1006.1
20260505185756 28 190 11.3 19.3 0.00 0.00 0.00 55 1006.1
20260505185256 27 190 9.7 19.3 0.00 0.00 0.00 56 1006.2